Weather in Nikolskaya Sloboda

Russia / Bryansk Oblast     53°30′19″N   33°35′48″E
temp.,
°C
wind,
m/s
gust,
m/s
humid.,
%
clouds,
%
prec.,
mm/h
press.,
hPa
HPBL,
m
11 april, sun
sun1100:00+3ssw39740 0.0 1026168
03:00+2ssw39760 0.0 1027164
06:00+2ssw36780 0.0 102894
09:00+7ssw35600 0.0 1029276
12:00+12ssw34460 0.0 1029826
15:00+14s23420 0.0 10291273
18:00+13se22520 0.0 102974
21:00+8se22620 0.0 103010
12 april, mon
mon1200:00+6ese22710 0.0 103015
03:00+5e22750 0.0 103131
06:00+3ene358084 0.0 103088
09:00+8ene4961100 0.0 1028421
12:00+11e4650100 0.0 1026726
15:00+8ese3689100 1.4 1025417
18:00+11e2578100 0.6 1023211
21:00+9ese2389100 0.6 102460
13 april, tue
tue1300:00+9e2593100 0.0 102289
03:00+8ene2294100 0.0 102138
06:00+9e3593100 0.1 102087
09:00+11se3983100 0.1 1020303
12:00+13se4977100 0.0 1019625
15:00+13se5880100 0.1 1019599
18:00+11sse4994100 0.1 1018405
21:00+10s3895100 0.2 1019304
14 april, wed
wed1400:00+9s2796100 0.0 1019209
03:00+9sse259679 0.0 1018140
06:00+7sse249683 0.0 101883
09:00+11s358330 0.0 1018371
12:00+14sse346399 0.0 10181100
15:00+15sse345494 0.0 10171590
18:00+12s2573100 0.1 1017176
21:00+10se238298 0.1 101870
15 april, thu
thu1500:00+10se2282100 0.0 101834
03:00+9se1183100 0.0 101810
06:00+9ene2285100 0.0 101838
09:00+10nne2383100 0.0 1018144
12:00+12nne357698 0.0 1018527
15:00+13nne667161 0.3 10171016
18:00+8nne698497 0.1 1018635
21:00+6nne71381100 0.1 1018745